Tracking 19575 objects as of 20-Feb-2019
HD Live streaming from Space Station
objects crossing your sky now

SL-6 R/B(2)

Track SL-6 R/B(2) now!


NORAD ID: 13075
Int'l Code: 1982-015D
Perigee: 855.6 km
Apogee: 40,131.1 km
Inclination: 62.7 °
Period: 730.3 minutes
Semi major axis: 26864 km
RCS: 7.357 m2 (large)
Launch date: February 26, 1982
Source: Commonwealth of Independent States (former USSR) (CIS)
Launch site: PLESETSK MISSILE AND SPACE COMPLEX (PKMTR)

Note: This is a ROCKET BODY
aabbcc
Your satellite tracking list
Your tracking list is empty




NASA's NSSDC Master Catalog

Two Line Element Set (TLE):
1 13075U 82015D   19049.09801881 -.00001003 +00000-0 -12614-2 0  9992
2 13075 062.6845 121.6886 7309971 264.9909 016.1820 01.97168934266219
Source of the keplerian elements: AFSPC